This demonstration page uses our WeatherBlox Daily Observations layout. Learn more.

Left ArrowRight Arrow

30.21309, -93.2044

Hourly Observations for July 4, 2022

Temp ( °F °C ) Dew Point ( °F °C ) Humidity (%) Winds ( mph kmh ) Pressure ( in mb ) Visibility ( mi km ) Precip ( " mm )
12:15 am 00:15 Clear 76 24.5 74 23.2 92 92 SSE 6 9 30.06 1018 10 16 0.00 0.00
12:35 am 00:35 Clear 76 24.5 74 23.3 93 93 SSE 6 9 30.05 1018 10 16 0.00 0.00
12:55 am 00:55 Clear 76 24.5 74 23.4 94 94 SSE 7 11 30.04 1017 10 16 0.00 0.00
1:15 am 01:15 Clear 77 24.8 74 23.6 93 93 SSE 3 6 30.04 1017 10 16 0.00 0.00
1:35 am 01:35 Clear 77 25.1 75 24 94 94 Calm 30.04 1017 10 16 0.00 0.00
1:55 am 01:55 Clear 77 25 75 23.8 93 93 SSE 3 6 30.04 1017 7 11 0.00 0.00
2:15 am 02:15 Clear 76 24.6 74 23.6 94 94 S 3 6 30.04 1017 7 11 0.00 0.00
2:35 am 02:35 Clear 77 24.8 75 23.8 94 94 Calm 30.04 1017 10 16 0.00 0.00
2:55 am 02:55 Clear with Mist and Fog 77 24.8 75 23.9 95 95 ESE 5 7 30.04 1017 7 11 0.00 0.00
3:15 am 03:15 Clear 77 25 75 24.1 95 95 Calm 30.04 1017 10 16 0.00 0.00
3:35 am 03:35 Clear with Mist and Fog 76 24.4 74 23.5 95 95 E 5 7 30.04 1017 5 8 0.00 0.00
3:55 am 03:55 Clear with Mist and Fog 76 24.3 74 23.5 95 95 ENE 5 7 30.04 1017 5 8 0.00 0.00
4:15 am 04:15 Clear 76 24.5 74 23.6 95 95 E 5 7 30.04 1017 7 11 0.00 0.00
4:35 am 04:35 Clear with Mist and Fog 76 24.4 74 23.5 95 95 E 5 7 30.04 1017 5 8 0.00 0.00
4:55 am 04:55 Clear 77 24.9 75 24 95 95 ENE 3 6 30.04 1017 7 11 0.00 0.00
5:15 am 05:15 Clear with Mist and Fog 76 24.7 75 23.8 95 95 ENE 3 6 30.04 1017 7 11 0.00 0.00
5:35 am 05:35 Partly Cloudy 77 24.9 75 24 95 95 ENE 5 7 30.05 1018 7 11 0.00 0.00
6:00 am 06:00 Partly Cloudy 77 25 75 24 94 94 Calm 30.05 1018 7 11 0.00 0.00
6:55 am 06:55 Partly Cloudy 77 25 75 24 94 94 Calm 30.06 1018 7 11 0.00 0.00
7:55 am 07:55 Partly Cloudy 81 27 79 26 94 94 Calm 30.08 1019 7 11 0.00 0.00
8:54 am 08:54 Mostly Cloudy 84 29 79 26 84 84 Calm 30.09 1019 7 11 0.00 0.00
9:50 am 09:50 Mostly Cloudy 88 31 75 24 66 66 SW 8 13 30.10 1019 10 16 0.00 0.00
10:55 am 10:55 Mostly Cloudy 88 31 75 24 66 66 SW 8 13 30.10 1019 10 16 0.00 0.00
11:45 am 11:45 Mostly Cloudy 90 32 73 23 59 59 SW 12 19 30.10 1019 10 16 0.00 0.00
12:55 pm 12:55 Mostly Cloudy 91 33 73 23 56 56 SSW 13 20 30.08 1019 10 16 0.00 0.00
1:50 pm 13:50 Mostly Cloudy 93 34 75 24 56 56 SSW 12 19 30.07 1018 10 16 0.00 0.00
2:56 pm 14:56 Mostly Cloudy 93 34 73 23 53 53 SW 14 22 30.05 1018 10 16 0.00 0.00
3:52 pm 15:52 Mostly Cloudy 91 33 73 23 56 56 SSW 10 17 30.04 1017 10 16 0.00 0.00
4:58 pm 16:58 Partly Cloudy 91 33 73 23 56 56 SSW 12 19 30.04 1017 10 16 0.00 0.00
5:48 pm 17:48 Partly Cloudy 91 33 73 23 56 56 SSW 13 20 30.02 1017 10 16 0.00 0.00
6:49 pm 18:49 Mostly Sunny 90 32 73 23 59 59 SSW 10 17 30.02 1017 10 16 0.00 0.00
7:45 pm 19:45 Mostly Sunny 88 31 75 24 66 66 SSW 10 17 30.03 1017 10 16 0.00 0.00
8:55 pm 20:55 Mostly Clear 84 29 75 24 74 74 SSW 7 11 30.03 1017 10 16 0.00 0.00
9:51 pm 21:51 Mostly Clear 79 26 75 24 89 89 S 6 9 30.05 1018 10 16 0.00 0.00
10:15 pm 22:15 Clear 79 26.1 76 24.3 90 90 SSE 5 7 30.05 1018 10 16 0.00 0.00
10:35 pm 22:35 Clear 79 26.1 76 24.3 90 90 S 5 7 30.05 1018 10 16 0.00 0.00
10:55 pm 22:55 Clear 81 27 77 24.9 88 88 S 6 9 30.05 1018 10 16 0.00 0.00
11:15 pm 23:15 Clear 82 27.7 77 24.8 84 84 SSW 6 9 30.06 1018 10 16 0.00 0.00
11:35 pm 23:35 Clear 82 27.7 76 24.7 84 84 SSW 6 9 30.06 1018 10 16 0.00 0.00
11:55 pm 23:55 Clear 82 27.6 76 24.6 84 84 SSW 5 7 30.06 1018 10 16 0.00 0.00

Powered by AerisWeather